Time,TemperatureF,DewpointF,PressureIn,WindDirection,WindDirectionDegrees,WindSpeedMPH,WindSpeedGustMPH,Humidity,HourlyPrecipIn,Conditions,Clouds,dailyrainin,SolarRadiationWatts/m^2,SoftwareType,DateUTC
2013-03-25 00:00:00,39.8,32.5,29.69,NW,304,26.5,26.5,75,0.00,CLR,,1.40,0.0,WeatherDisplay:10.37,2013-03-25 04:00:00,
2013-03-25 00:05:00,39.7,32.8,29.69,West,275,19.6,19.6,76,0.00,RA,,0.00,0.0,WeatherDisplay:10.37,2013-03-25 04:05:00,
2013-03-25 00:10:00,39.5,32.6,29.68,West,270,23.0,23.0,76,0.00,CLR,,0.00,0.0,WeatherDisplay:10.37,2013-03-25 04:10:00,
2013-03-25 00:15:00,39.5,32.6,29.69,NW,307,21.9,21.9,76,0.00,CLR,,0.00,0.0,WeatherDisplay:10.37,2013-03-25 04:15:00,
2013-03-25 00:20:00,39.4,32.8,29.69,WNW,292,19.6,19.6,77,0.00,CLR,,0.00,0.0,WeatherDisplay:10.37,2013-03-25 04:20:00,
2013-03-25 00:26:00,39.3,33.0,29.68,WNW,292,20.7,20.7,78,0.00,CLR,,0.00,0.0,WeatherDisplay:10.37,2013-03-25 04:26:00,
2013-03-25 00:31:00,39.2,32.9,29.68,WNW,282,26.5,26.5,78,0.00,CLR,,0.00,0.0,WeatherDisplay:10.37,2013-03-25 04:31:00,
2013-03-25 00:36:00,39.1,33.1,29.69,West,272,16.1,16.1,79,0.00,CLR,,0.00,0.0,WeatherDisplay:10.37,2013-03-25 04:36:00,
2013-03-25 00:41:00,39.0,33.0,29.69,West,273,24.2,24.2,79,0.00,CLR,,0.00,0.0,WeatherDisplay:10.37,2013-03-25 04:41:00,
2013-03-25 00:46:00,38.9,32.9,29.69,WNW,296,19.6,19.6,79,0.00,CLR,,0.00,0.0,WeatherDisplay:10.37,2013-03-25 04:46:00,
2013-03-25 00:51:00,38.8,32.8,29.68,WNW,286,21.9,21.9,79,0.00,CLR,,0.00,0.0,WeatherDisplay:10.37,2013-03-25 04:51:00,
2013-03-25 00:56:00,38.8,32.5,29.68,West,267,27.6,27.6,78,0.00,CLR,,0.00,0.0,WeatherDisplay:10.37,2013-03-25 04:56:00,
2013-03-25 01:01:00,38.8,32.8,29.69,NW,312,19.6,19.6,79,0.00,CLR,,0.00,0.0,WeatherDisplay:10.37,2013-03-25 05:01:00,
2013-03-25 01:06:00,38.7,32.4,29.69,West,279,19.6,19.6,78,0.00,CLR,,0.00,0.0,WeatherDisplay:10.37,2013-03-25 05:06:00,
2013-03-25 01:11:00,38.7,33.1,29.69,West,263,23.0,23.0,80,0.00,CLR,,0.00,0.0,WeatherDisplay:10.37,2013-03-25 05:11:00,
2013-03-25 01:16:00,38.6,32.6,29.69,WNW,289,25.0,25.0,79,0.00,CLR,,0.00,0.0,WeatherDisplay:10.37,2013-03-25 05:16:00,
2013-03-25 01:21:00,38.6,32.6,29.69,WNW,285,28.8,28.8,79,0.00,CLR,,0.00,0.0,WeatherDisplay:10.37,2013-03-25 05:21:00,
2013-03-25 01:26:00,38.5,32.9,29.69,West,273,20.7,20.7,80,0.00,CLR,,0.00,0.0,WeatherDisplay:10.37,2013-03-25 05:26:00,
2013-03-25 01:31:00,38.4,32.8,29.69,West,268,19.6,19.6,80,0.00,CLR,,0.00,0.0,WeatherDisplay:10.37,2013-03-25 05:31:00,
2013-03-25 01:36:00,38.3,32.7,29.70,West,263,19.6,19.6,80,0.00,CLR,,0.00,0.0,WeatherDisplay:10.37,2013-03-25 05:36:00,
2013-03-25 01:41:00,38.3,33.0,29.70,WNW,286,21.9,21.9,81,0.00,CLR,,0.00,0.0,WeatherDisplay:10.37,2013-03-25 05:41:00,
2013-03-25 01:46:00,38.2,32.6,29.70,West,277,26.5,26.5,80,0.00,CLR,,0.00,0.0,WeatherDisplay:10.37,2013-03-25 05:46:00,
2013-03-25 01:51:00,38.1,32.5,29.70,NW,313,26.5,26.5,80,0.00,CLR,,0.00,0.0,WeatherDisplay:10.37,2013-03-25 05:51:00,
2013-03-25 01:57:00,38.0,31.7,29.70,WNW,288,26.5,26.5,78,0.00,CLR,,0.00,0.0,WeatherDisplay:10.37,2013-03-25 05:57:00,
2013-03-25 02:02:00,38.0,31.7,29.71,WNW,288,26.5,26.5,78,0.00,CLR,,0.00,0.0,WeatherDisplay:10.37,2013-03-25 06:02:00,
2013-03-25 02:07:00,37.9,31.3,29.71,NW,319,24.0,24.0,77,0.00,CLR,,0.00,0.0,WeatherDisplay:10.37,2013-03-25 06:07:00,
2013-03-25 02:12:00,37.9,31.3,29.71,NW,309,19.0,19.0,77,0.00,CLR,,0.00,0.0,WeatherDisplay:10.37,2013-03-25 06:12:00,
2013-03-25 02:17:00,37.8,31.6,29.71,NW,321,27.6,27.6,78,0.00,CLR,,0.00,0.0,WeatherDisplay:10.37,2013-03-25 06:17:00,
2013-03-25 02:22:00,37.7,31.5,29.72,NW,305,18.4,18.4,78,0.00,CLR,,0.00,0.0,WeatherDisplay:10.37,2013-03-25 06:22:00,
2013-03-25 02:27:00,37.5,30.9,29.72,NW,306,24.2,24.2,77,0.00,CLR,,0.00,0.0,WeatherDisplay:10.37,2013-03-25 06:27:00,
2013-03-25 02:32:00,37.3,30.4,29.72,NW,324,24.0,24.0,76,0.00,CLR,,0.00,0.0,WeatherDisplay:10.37,2013-03-25 06:32:00,
2013-03-25 02:37:00,37.1,30.2,29.72,WNW,294,26.5,26.5,76,0.00,CLR,,0.00,0.0,WeatherDisplay:10.37,2013-03-25 06:37:00,
2013-03-25 02:42:00,36.9,30.0,29.72,WNW,300,23.0,23.0,76,0.00,CLR,,0.00,0.0,WeatherDisplay:10.37,2013-03-25 06:42:00,
2013-03-25 02:47:00,36.8,29.6,29.72,WNW,291,24.2,24.2,75,0.00,CLR,,0.00,0.0,WeatherDisplay:10.37,2013-03-25 06:47:00,
2013-03-25 02:52:00,36.7,29.5,29.72,West,281,32.2,32.2,75,0.00,CLR,,0.00,0.0,WeatherDisplay:10.37,2013-03-25 06:52:00,
2013-03-25 02:57:00,36.6,29.4,29.72,WNW,302,19.6,19.6,75,0.00,CLR,,0.00,0.0,WeatherDisplay:10.37,2013-03-25 06:57:00,
2013-03-25 03:02:00,36.5,29.3,29.72,WNW,296,19.0,19.0,75,0.00,CLR,,0.00,0.0,WeatherDisplay:10.37,2013-03-25 07:02:00,
2013-03-25 03:08:00,36.4,28.9,29.72,West,275,25.3,25.3,74,0.00,CLR,,0.00,0.0,WeatherDisplay:10.37,2013-03-25 07:08:00,
2013-03-25 03:13:00,36.3,29.5,29.72,WNW,283,26.5,26.5,76,0.00,CLR,,0.00,0.0,WeatherDisplay:10.37,2013-03-25 07:13:00,
2013-03-25 03:18:00,36.1,28.9,29.72,WNW,288,20.7,20.7,75,0.00,CLR,,0.00,0.0,WeatherDisplay:10.37,2013-03-25 07:18:00,
2013-03-25 03:23:00,36.1,28.9,29.72,WNW,303,19.6,19.6,75,0.00,CLR,,0.00,0.0,WeatherDisplay:10.37,2013-03-25 07:23:00,
2013-03-25 03:28:00,36.0,28.8,29.72,West,275,19.6,19.6,75,0.00,CLR,,0.00,0.0,WeatherDisplay:10.37,2013-03-25 07:28:00,
2013-03-25 03:33:00,35.9,28.7,29.72,West,277,24.0,24.0,75,0.00,CLR,,0.00,0.0,WeatherDisplay:10.37,2013-03-25 07:33:00,
2013-03-25 03:38:00,35.9,29.1,29.72,WNW,290,22.0,22.0,76,0.00,CLR,,0.00,0.0,WeatherDisplay:10.37,2013-03-25 07:38:00,
2013-03-25 03:43:00,35.8,29.0,29.72,WNW,286,21.9,21.9,76,0.00,CLR,,0.00,0.0,WeatherDisplay:10.37,2013-03-25 07:43:00,
2013-03-25 03:48:00,35.7,28.6,29.72,West,278,24.2,24.2,75,0.00,CLR,,0.00,0.0,WeatherDisplay:10.37,2013-03-25 07:48:00,
2013-03-25 03:53:00,35.6,28.5,29.72,West,279,23.0,23.0,75,0.00,CLR,,0.00,0.0,WeatherDisplay:10.37,2013-03-25 07:53:00,
2013-03-25 03:58:00,35.6,28.5,29.72,West,273,21.9,21.9,75,0.00,CLR,,0.00,0.0,WeatherDisplay:10.37,2013-03-25 07:58:00,
2013-03-25 04:03:00,35.5,28.0,29.72,West,269,23.0,23.0,74,0.00,CLR,,0.00,0.0,WeatherDisplay:10.37,2013-03-25 08:03:00,
2013-03-25 04:08:00,35.5,28.4,29.72,WNW,284,26.5,26.5,75,0.00,CLR,,0.00,0.0,WeatherDisplay:10.37,2013-03-25 08:08:00,
2013-03-25 04:13:00,35.4,28.3,29.72,NW,306,18.4,18.4,75,0.00,CLR,,0.00,0.0,WeatherDisplay:10.37,2013-03-25 08:13:00,
2013-03-25 04:18:00,35.4,28.3,29.72,WNW,286,17.0,17.0,75,0.00,CLR,,0.00,0.0,WeatherDisplay:10.37,2013-03-25 08:18:00,
2013-03-25 04:23:00,35.3,28.2,29.72,NW,316,21.0,21.0,75,0.00,CLR,,0.00,0.0,WeatherDisplay:10.37,2013-03-25 08:23:00,
2013-03-25 04:28:00,35.3,28.2,29.73,WNW,290,33.4,33.4,75,0.00,CLR,,0.00,0.0,WeatherDisplay:10.37,2013-03-25 08:28:00,
2013-03-25 04:33:00,35.2,28.1,29.73,West,269,32.2,32.2,75,0.00,CLR,,0.00,0.0,WeatherDisplay:10.37,2013-03-25 08:33:00,
2013-03-25 04:38:00,35.2,28.4,29.73,NW,320,19.6,19.6,76,0.00,CLR,,0.00,0.0,WeatherDisplay:10.37,2013-03-25 08:38:00,
2013-03-25 04:43:00,35.1,28.3,29.73,WNW,286,20.7,20.7,76,0.00,CLR,,0.00,0.0,WeatherDisplay:10.37,2013-03-25 08:43:00,
2013-03-25 04:48:00,35.0,28.2,29.73,West,277,26.5,26.5,76,0.00,CLR,,0.00,0.0,WeatherDisplay:10.37,2013-03-25 08:48:00,
2013-03-25 04:53:00,35.0,28.2,29.73,WNW,289,18.4,18.4,76,0.00,CLR,,0.00,0.0,WeatherDisplay:10.37,2013-03-25 08:53:00,
2013-03-25 04:58:00,34.9,28.4,29.73,WNW,282,18.4,18.4,77,0.00,CLR,,0.00,0.0,WeatherDisplay:10.37,2013-03-25 08:58:00,
2013-03-25 05:03:00,34.8,28.6,29.74,West,259,12.0,12.0,78,0.00,CLR,,0.00,0.0,WeatherDisplay:10.37,2013-03-25 09:03:00,
2013-03-25 05:08:00,34.8,28.3,29.74,NW,320,23.0,23.0,77,0.00,CLR,,0.00,0.0,WeatherDisplay:10.37,2013-03-25 09:08:00,
2013-03-25 05:13:00,34.7,27.9,29.74,NW,306,19.6,19.6,76,0.00,CLR,,0.00,0.0,WeatherDisplay:10.37,2013-03-25 09:13:00,
2013-03-25 05:18:00,34.7,27.6,29.74,NW,309,19.0,19.0,75,0.00,CLR,,0.00,0.0,WeatherDisplay:10.37,2013-03-25 09:18:00,
2013-03-25 05:23:00,34.7,27.3,29.74,WNW,299,29.9,29.9,74,0.00,CLR,,0.00,0.0,WeatherDisplay:10.37,2013-03-25 09:23:00,
2013-03-25 05:28:00,34.6,27.2,29.74,NW,319,23.0,23.0,74,0.00,CLR,,0.00,0.0,WeatherDisplay:10.37,2013-03-25 09:28:00,
2013-03-25 05:33:00,34.5,26.7,29.74,West,266,29.9,29.9,73,0.00,CLR,,0.00,0.0,WeatherDisplay:10.37,2013-03-25 09:33:00,
2013-03-25 05:38:00,34.4,27.0,29.74,West,264,20.7,20.7,74,0.00,CLR,,0.00,0.0,WeatherDisplay:10.37,2013-03-25 09:38:00,
2013-03-25 05:43:00,34.4,26.3,29.74,West,269,18.4,18.4,72,0.00,CLR,,0.00,0.0,WeatherDisplay:10.37,2013-03-25 09:43:00,
2013-03-25 05:48:00,34.3,26.2,29.75,WNW,285,33.4,33.4,72,0.00,CLR,,0.00,0.0,WeatherDisplay:10.37,2013-03-25 09:48:00,
2013-03-25 05:53:00,34.2,25.8,29.75,NW,314,28.8,28.8,71,0.00,CLR,,0.00,0.0,WeatherDisplay:10.37,2013-03-25 09:53:00,
2013-03-25 05:58:00,34.1,25.7,29.75,West,281,34.5,34.5,71,0.00,CLR,,0.00,0.0,WeatherDisplay:10.37,2013-03-25 09:58:00,
2013-03-25 06:04:00,34.0,25.9,29.75,WNW,302,25.3,25.3,72,0.00,CLR,,0.00,0.0,WeatherDisplay:10.37,2013-03-25 10:04:00,
2013-03-25 06:09:00,33.9,25.8,29.75,West,278,21.9,21.9,72,0.00,CLR,,0.00,0.0,WeatherDisplay:10.37,2013-03-25 10:09:00,
2013-03-25 06:14:00,33.8,25.4,29.76,WNW,296,33.4,33.4,71,0.00,CLR,,0.00,0.0,WeatherDisplay:10.37,2013-03-25 10:14:00,
2013-03-25 06:19:00,33.8,26.1,29.75,WNW,283,21.0,21.0,73,0.00,CLR,,0.00,0.0,WeatherDisplay:10.37,2013-03-25 10:19:00,
2013-03-25 06:24:00,33.7,25.6,29.76,WNW,295,19.6,19.6,72,0.00,CLR,,0.00,0.0,WeatherDisplay:10.37,2013-03-25 10:24:00,
2013-03-25 06:29:00,33.7,25.3,29.76,NW,324,15.0,15.1,71,0.00,CLR,,0.00,0.0,WeatherDisplay:10.37,2013-03-25 10:29:00,
2013-03-25 06:34:00,33.7,25.3,29.76,West,277,24.2,24.2,71,0.00,CLR,,0.00,0.0,WeatherDisplay:10.37,2013-03-25 10:34:00,
2013-03-25 06:39:00,33.6,25.2,29.76,West,279,26.5,26.5,71,0.00,CLR,,0.00,0.0,WeatherDisplay:10.37,2013-03-25 10:39:00,
2013-03-25 06:44:00,33.5,25.4,29.76,WNW,298,25.3,25.3,72,0.00,CLR,,0.00,0.0,WeatherDisplay:10.37,2013-03-25 10:44:00,
2013-03-25 06:49:00,33.4,25.3,29.76,West,269,14.0,14.0,72,0.00,CLR,,0.00,0.0,WeatherDisplay:10.37,2013-03-25 10:49:00,
2013-03-25 06:54:00,33.3,25.6,29.77,NW,324,23.0,23.0,73,0.00,CLR,,0.00,0.0,WeatherDisplay:10.37,2013-03-25 10:54:00,
2013-03-25 06:59:00,33.2,25.8,29.77,WNW,298,21.9,21.9,74,0.00,CLR,,0.00,0.0,WeatherDisplay:10.37,2013-03-25 10:59:00,
2013-03-25 07:04:00,33.1,26.4,29.78,WNW,288,15.0,15.0,76,0.00,CLR,,0.00,0.0,WeatherDisplay:10.37,2013-03-25 11:04:00,
2013-03-25 07:09:00,33.0,25.6,29.77,WNW,289,25.3,25.3,74,0.00,CLR,,0.00,0.0,WeatherDisplay:10.37,2013-03-25 11:09:00,
2013-03-25 07:14:00,33.1,25.7,29.78,WNW,293,23.0,23.0,74,0.00,CLR,,0.00,0.0,WeatherDisplay:10.37,2013-03-25 11:14:00,
2013-03-25 07:19:00,33.1,25.7,29.78,NW,319,18.4,18.4,74,0.00,CLR,,0.00,0.0,WeatherDisplay:10.37,2013-03-25 11:19:00,
2013-03-25 07:24:00,33.1,25.7,29.78,West,270,21.9,21.9,74,0.00,CLR,,0.00,0.0,WeatherDisplay:10.37,2013-03-25 11:24:00,
2013-03-25 07:29:00,32.9,25.8,29.78,WNW,296,24.2,24.2,75,0.00,CLR,,0.00,0.0,WeatherDisplay:10.37,2013-03-25 11:29:00,
2013-03-25 07:34:00,32.8,26.1,29.78,NW,313,19.6,19.6,76,0.00,CLR,,0.00,0.0,WeatherDisplay:10.37,2013-03-25 11:34:00,
2013-03-25 07:39:00,32.7,26.0,29.78,WNW,286,21.0,21.0,76,0.00,CLR,,0.00,0.0,WeatherDisplay:10.37,2013-03-25 11:39:00,
2013-03-25 07:44:00,32.5,26.4,29.78,WNW,294,19.6,19.6,78,0.00,CLR,,0.00,0.0,WeatherDisplay:10.37,2013-03-25 11:44:00,
2013-03-25 07:49:00,32.4,26.3,29.78,WNW,292,17.3,17.3,78,0.00,CLR,,0.00,0.0,WeatherDisplay:10.37,2013-03-25 11:49:00,
2013-03-25 07:54:00,32.4,26.6,29.78,WNW,294,13.8,13.8,79,0.00,CLR,,0.00,7.0,WeatherDisplay:10.37,2013-03-25 11:54:00,
2013-03-25 07:59:00,32.4,26.6,29.78,WNW,286,23.0,23.0,79,0.00,CLR,,0.00,7.0,WeatherDisplay:10.37,2013-03-25 11:59:00,
2013-03-25 08:04:00,32.3,26.2,29.78,WNW,299,26.5,26.5,78,0.00,CLR,,0.00,9.0,WeatherDisplay:10.37,2013-03-25 12:04:00,
2013-03-25 08:09:00,32.3,26.2,29.78,West,280,18.4,18.4,78,0.00,CLR,,0.00,16.0,WeatherDisplay:10.37,2013-03-25 12:09:00,
2013-03-25 08:14:00,32.2,26.4,29.78,NW,308,27.6,27.6,79,0.00,CLR,,0.00,23.0,WeatherDisplay:10.37,2013-03-25 12:14:00,
2013-03-25 08:19:00,32.1,26.3,29.79,WNW,298,19.6,19.6,79,0.00,CLR,,0.00,30.0,WeatherDisplay:10.37,2013-03-25 12:19:00,
2013-03-25 08:24:00,32.1,26.0,29.79,West,260,31.1,31.1,78,0.00,CLR,,0.00,33.0,WeatherDisplay:10.37,2013-03-25 12:24:00,
2013-03-25 08:29:00,32.2,25.8,29.80,NW,310,19.6,19.6,77,0.00,CLR,,0.00,33.0,WeatherDisplay:10.37,2013-03-25 12:29:00,
2013-03-25 08:34:00,32.3,26.2,29.80,West,280,23.0,23.0,78,0.00,CLR,,0.00,46.0,WeatherDisplay:10.37,2013-03-25 12:34:00,
2013-03-25 08:39:00,32.4,26.0,29.80,WNW,297,15.0,15.0,77,0.00,CLR,,0.00,60.0,WeatherDisplay:10.37,2013-03-25 12:39:00,
2013-03-25 08:44:00,32.4,26.0,29.80,WNW,302,21.9,21.9,77,0.00,CLR,,0.00,72.0,WeatherDisplay:10.37,2013-03-25 12:44:00,
2013-03-25 08:49:00,32.5,26.1,29.81,WNW,282,19.6,19.6,77,0.00,CLR,,0.00,54.0,WeatherDisplay:10.37,2013-03-25 12:49:00,
2013-03-25 08:54:00,32.4,26.0,29.81,WNW,301,27.6,27.6,77,0.00,CLR,,0.00,72.0,WeatherDisplay:10.37,2013-03-25 12:54:00,
2013-03-25 08:59:00,32.3,25.9,29.81,West,280,20.7,20.7,77,0.00,CLR,,0.00,109.0,WeatherDisplay:10.37,2013-03-25 12:59:00,
2013-03-25 09:04:00,32.3,26.2,29.81,West,279,19.6,19.6,78,0.00,OVC,,0.00,91.0,WeatherDisplay:10.37,2013-03-25 13:04:00,
2013-03-25 09:09:00,32.3,25.9,29.82,WNW,292,17.3,17.3,77,0.00,OVC,,0.00,97.0,WeatherDisplay:10.37,2013-03-25 13:09:00,
2013-03-25 09:14:00,32.5,26.4,29.82,WNW,290,16.1,16.1,78,0.00,OVC,,0.00,120.0,WeatherDisplay:10.37,2013-03-25 13:14:00,
2013-03-25 09:19:00,32.5,26.4,29.82,WNW,285,19.6,19.6,78,0.00,OVC,,0.00,160.0,WeatherDisplay:10.37,2013-03-25 13:19:00,
2013-03-25 09:24:00,32.5,26.4,29.83,West,275,16.1,16.1,78,0.00,OVC,,0.00,113.0,WeatherDisplay:10.37,2013-03-25 13:24:00,
2013-03-25 09:29:00,32.4,26.6,29.83,WNW,298,23.0,23.0,79,0.00,OVC,,0.00,120.0,WeatherDisplay:10.37,2013-03-25 13:29:00,
2013-03-25 09:34:00,32.2,26.7,29.83,WNW,292,31.1,31.1,80,0.00,OVC,,0.00,237.0,WeatherDisplay:10.37,2013-03-25 13:34:00,
2013-03-25 09:39:00,32.3,26.8,29.83,West,265,21.9,21.9,80,0.00,OVC,,0.00,135.0,WeatherDisplay:10.37,2013-03-25 13:39:00,
2013-03-25 09:44:00,32.4,27.5,29.84,NW,315,24.0,24.0,82,0.00,OVC,,0.00,158.0,WeatherDisplay:10.37,2013-03-25 13:44:00,
2013-03-25 09:49:00,32.5,27.6,29.84,WNW,293,16.1,16.1,82,0.00,OVC,,0.00,237.0,WeatherDisplay:10.37,2013-03-25 13:49:00,
2013-03-25 09:54:00,32.7,27.5,29.84,NW,321,25.3,25.3,81,0.00,OVC,,0.00,246.0,WeatherDisplay:10.37,2013-03-25 13:54:00,
2013-03-25 09:59:00,32.9,27.1,29.84,WNW,288,28.0,28.0,79,0.00,OVC,,0.00,283.0,WeatherDisplay:10.37,2013-03-25 13:59:00,
2013-03-25 10:04:00,32.7,26.6,29.84,West,281,28.8,28.8,78,0.00,OVC,,0.00,100.0,WeatherDisplay:10.37,2013-03-25 14:04:00,
2013-03-25 10:09:00,32.3,26.8,29.85,WNW,288,27.6,27.6,80,0.00,OVC,,0.00,56.0,WeatherDisplay:10.37,2013-03-25 14:09:00,
2013-03-25 10:14:00,31.8,26.9,29.85,West,281,24.0,24.0,82,0.00,OVC,,0.00,132.0,WeatherDisplay:10.37,2013-03-25 14:14:00,
2013-03-25 10:19:00,31.7,27.4,29.85,West,272,18.4,18.4,84,0.00,OVC,,0.00,244.0,WeatherDisplay:10.37,2013-03-25 14:19:00,
2013-03-25 10:24:00,32.3,28.0,29.85,WNW,282,19.6,19.6,84,0.00,OVC,,0.00,304.0,WeatherDisplay:10.37,2013-03-25 14:24:00,
2013-03-25 10:29:00,32.9,27.7,29.85,West,281,18.4,18.4,81,0.00,OVC,,0.00,163.0,WeatherDisplay:10.37,2013-03-25 14:29:00,
2013-03-25 10:34:00,33.0,26.9,29.86,WNW,287,26.5,26.5,78,0.00,OVC,,0.00,209.0,WeatherDisplay:10.37,2013-03-25 14:34:00,
2013-03-25 10:39:00,33.1,26.7,29.86,WNW,296,24.2,24.2,77,0.00,OVC,,0.00,220.0,WeatherDisplay:10.37,2013-03-25 14:39:00,
2013-03-25 10:44:00,33.3,26.9,29.86,West,265,24.2,24.2,77,0.00,OVC,,0.00,176.0,WeatherDisplay:10.37,2013-03-25 14:44:00,
2013-03-25 10:50:00,33.4,26.6,29.86,WNW,298,26.5,26.5,76,0.00,OVC,,0.00,188.0,WeatherDisplay:10.37,2013-03-25 14:50:00,
2013-03-25 10:55:00,33.3,25.9,29.87,West,275,20.0,20.0,74,0.00,OVC,,0.00,134.0,WeatherDisplay:10.37,2013-03-25 14:55:00,
2013-03-25 11:00:00,33.3,26.2,29.87,WNW,286,25.3,25.3,75,0.00,OVC,,0.00,172.0,WeatherDisplay:10.37,2013-03-25 15:00:00,
2013-03-25 11:05:00,33.3,26.5,29.88,WNW,295,25.0,25.0,76,0.00,OVC,,0.00,223.0,WeatherDisplay:10.37,2013-03-25 15:05:00,
2013-03-25 11:10:00,33.5,26.4,29.88,WNW,288,25.3,25.3,75,0.00,OVC,,0.00,193.0,WeatherDisplay:10.37,2013-03-25 15:10:00,
2013-03-25 11:15:00,33.5,26.4,29.89,NW,308,20.7,20.7,75,0.00,OVC,,0.00,195.0,WeatherDisplay:10.37,2013-03-25 15:15:00,
2013-03-25 11:20:00,33.6,26.2,29.89,WNW,290,26.5,26.5,74,0.00,OVC,,0.00,214.0,WeatherDisplay:10.37,2013-03-25 15:20:00,
2013-03-25 11:25:00,33.6,25.9,29.89,WNW,294,26.5,26.5,73,0.00,OVC,,0.00,186.0,WeatherDisplay:10.37,2013-03-25 15:25:00,
2013-03-25 11:30:00,33.6,25.9,29.89,WNW,297,21.9,21.9,73,0.00,OVC,,0.00,186.0,WeatherDisplay:10.37,2013-03-25 15:30:00,
2013-03-25 11:35:00,33.6,25.9,29.89,NW,308,26.5,26.5,73,0.00,OVC,,0.00,234.0,WeatherDisplay:10.37,2013-03-25 15:35:00,
2013-03-25 11:40:00,33.9,26.2,29.90,WNW,300,20.7,20.7,73,0.00,OVC,,0.00,174.0,WeatherDisplay:10.37,2013-03-25 15:40:00,
2013-03-25 11:45:00,33.7,26.0,29.90,WNW,296,23.0,23.0,73,0.00,OVC,,0.00,179.0,WeatherDisplay:10.37,2013-03-25 15:45:00,
2013-03-25 11:50:00,33.7,26.6,29.90,West,277,19.6,19.6,75,0.00,OVC,,0.00,278.0,WeatherDisplay:10.37,2013-03-25 15:50:00,
2013-03-25 11:55:00,33.8,26.1,29.90,WNW,294,27.6,27.6,73,0.00,OVC,,0.00,271.0,WeatherDisplay:10.37,2013-03-25 15:55:00,
2013-03-25 12:00:00,33.8,26.4,29.90,West,281,17.3,17.3,74,0.00,OVC,,0.00,325.0,WeatherDisplay:10.37,2013-03-25 16:00:00,
2013-03-25 12:05:00,34.1,26.7,29.90,WNW,292,26.5,26.5,74,0.00,OVC,,0.00,376.0,WeatherDisplay:10.37,2013-03-25 16:05:00,
2013-03-25 12:10:00,34.4,26.6,29.90,West,271,24.2,24.2,73,0.00,OVC,,0.00,315.0,WeatherDisplay:10.37,2013-03-25 16:10:00,
2013-03-25 12:15:00,34.4,26.3,29.91,NW,305,28.0,28.0,72,0.00,OVC,,0.00,241.0,WeatherDisplay:10.37,2013-03-25 16:15:00,
2013-03-25 12:20:00,34.2,26.1,29.91,WNW,292,25.3,25.3,72,0.00,OVC,,0.00,366.0,WeatherDisplay:10.37,2013-03-25 16:20:00,
2013-03-25 12:25:00,34.3,25.9,29.91,WNW,288,26.5,26.5,71,0.00,OVC,,0.00,265.0,WeatherDisplay:10.37,2013-03-25 16:25:00,
2013-03-25 12:30:00,34.3,25.9,29.91,NNW,329,31.1,31.1,71,0.00,OVC,,0.00,422.0,WeatherDisplay:10.37,2013-03-25 16:30:00,
2013-03-25 12:35:00,34.8,27.0,29.92,WNW,290,31.1,31.1,73,0.00,OVC,,0.00,510.0,WeatherDisplay:10.37,2013-03-25 16:35:00,
2013-03-25 12:40:00,35.0,26.5,29.91,West,281,24.2,24.2,71,0.00,CLR,,0.00,325.0,WeatherDisplay:10.37,2013-03-25 16:40:00,
2013-03-25 12:45:00,35.0,26.5,29.91,WNW,298,26.5,26.5,71,0.00,CLR,,0.00,244.0,WeatherDisplay:10.37,2013-03-25 16:45:00,
2013-03-25 12:50:00,34.7,26.6,29.91,WNW,293,13.0,27.0,72,0.00,CLR,,0.00,422.0,WeatherDisplay:10.37,2013-03-25 16:50:00,
2013-03-25 12:55:00,35.4,27.9,29.91,West,280,19.6,19.6,74,0.00,CLR,,0.00,425.0,WeatherDisplay:10.37,2013-03-25 16:55:00,
2013-03-25 13:00:00,36.0,27.8,29.91,WNW,292,21.0,21.0,72,0.00,CLR,,0.00,1106.0,WeatherDisplay:10.37,2013-03-25 17:00:00,
2013-03-25 13:05:00,36.4,27.9,29.91,WNW,295,32.2,32.2,71,0.00,CLR,,0.00,990.0,WeatherDisplay:10.37,2013-03-25 17:05:00,
2013-03-25 13:10:00,36.0,27.5,29.91,WNW,288,21.0,35.0,71,0.00,CLR,,0.00,471.0,WeatherDisplay:10.37,2013-03-25 17:10:00,
2013-03-25 13:15:00,35.7,27.2,29.91,West,281,18.4,18.4,71,0.00,CLR,,0.00,399.0,WeatherDisplay:10.37,2013-03-25 17:15:00,
2013-03-25 13:20:00,36.1,27.6,29.91,WNW,290,23.0,33.0,71,0.00,CLR,,0.00,429.0,WeatherDisplay:10.37,2013-03-25 17:20:00,
2013-03-25 13:25:00,36.1,27.6,29.91,NW,304,24.2,24.2,71,0.00,CLR,,0.00,387.0,WeatherDisplay:10.37,2013-03-25 17:25:00,
2013-03-25 13:30:00,36.0,27.2,29.91,WNW,292,17.0,29.0,70,0.00,CLR,,0.00,373.0,WeatherDisplay:10.37,2013-03-25 17:30:00,
2013-03-25 13:35:00,35.4,26.6,29.91,WNW,282,26.5,26.5,70,0.00,CLR,,0.00,329.0,WeatherDisplay:10.37,2013-03-25 17:35:00,
2013-03-25 13:40:00,35.3,26.5,29.91,WNW,292,24.0,24.0,70,0.00,CLR,,0.00,360.0,WeatherDisplay:10.37,2013-03-25 17:40:00,
2013-03-25 13:45:00,35.2,26.4,29.92,NW,319,31.1,31.1,70,0.00,CLR,,0.00,485.0,WeatherDisplay:10.37,2013-03-25 17:45:00,
2013-03-25 13:50:00,36.1,27.3,29.92,WNW,295,31.1,31.1,70,0.00,CLR,,0.00,547.0,WeatherDisplay:10.37,2013-03-25 17:50:00,
2013-03-25 13:55:00,36.1,26.6,29.91,WNW,292,33.4,33.4,68,0.00,CLR,,0.00,246.0,WeatherDisplay:10.37,2013-03-25 17:55:00,
2013-03-25 14:00:00,35.7,26.2,29.91,NW,311,25.3,25.3,68,0.00,CLR,,0.00,244.0,WeatherDisplay:10.37,2013-03-25 18:00:00,
2013-03-25 14:05:00,35.6,27.5,29.91,West,265,17.3,17.3,72,0.00,CLR,,0.00,264.0,WeatherDisplay:10.37,2013-03-25 18:05:00,
2013-03-25 14:10:00,35.5,26.7,29.91,NW,313,25.3,25.3,70,0.00,CLR,,0.00,496.0,WeatherDisplay:10.37,2013-03-25 18:10:00,
2013-03-25 14:15:00,36.3,28.1,29.91,WNW,291,25.3,25.3,72,0.00,CLR,,0.00,974.0,WeatherDisplay:10.37,2013-03-25 18:15:00,
2013-03-25 14:20:00,36.8,27.9,29.91,West,265,27.0,27.0,70,0.00,CLR,,0.00,533.0,WeatherDisplay:10.37,2013-03-25 18:20:00,
2013-03-25 14:25:00,36.5,27.3,29.92,NW,311,28.8,28.8,69,0.00,CLR,,0.00,513.0,WeatherDisplay:10.37,2013-03-25 18:25:00,
2013-03-25 14:30:00,37.0,28.1,29.91,WNW,295,33.4,33.4,70,0.00,CLR,,0.00,513.0,WeatherDisplay:10.37,2013-03-25 18:30:00,
2013-03-25 14:35:00,37.0,27.4,29.91,NW,305,19.6,19.6,68,0.00,CLR,,0.00,513.0,WeatherDisplay:10.37,2013-03-25 18:35:00,
2013-03-25 14:40:00,36.7,26.4,29.91,WNW,297,27.6,27.6,66,0.00,CLR,,0.00,420.0,WeatherDisplay:10.37,2013-03-25 18:40:00,
2013-03-25 14:45:00,36.4,26.5,29.91,NW,307,23.0,23.0,67,0.00,CLR,,0.00,339.0,WeatherDisplay:10.37,2013-03-25 18:45:00,
2013-03-25 14:50:00,36.0,25.7,29.92,WNW,294,26.5,26.5,66,0.00,SCT,,0.00,343.0,WeatherDisplay:10.37,2013-03-25 18:50:00,
2013-03-25 14:55:00,35.9,25.6,29.91,NW,313,21.9,21.9,66,0.00,SCT,,0.00,232.0,WeatherDisplay:10.37,2013-03-25 18:55:00,
2013-03-25 15:00:00,35.8,26.3,29.91,WNW,293,19.6,19.6,68,0.00,CLR,,0.00,496.0,WeatherDisplay:10.37,2013-03-25 19:00:00,
2013-03-25 15:05:00,35.9,26.0,29.92,WNW,284,26.5,26.5,67,0.00,BKN,,0.00,221.0,WeatherDisplay:10.37,2013-03-25 19:05:00,
2013-03-25 15:10:00,35.8,25.9,29.92,WNW,288,27.6,27.6,67,0.00,SCT,,0.00,262.0,WeatherDisplay:10.37,2013-03-25 19:10:00,
2013-03-25 15:15:00,35.6,25.4,29.92,NW,309,23.0,23.0,66,0.00,SCT,,0.00,262.0,WeatherDisplay:10.37,2013-03-25 19:15:00,
2013-03-25 15:20:00,35.9,26.7,29.92,WNW,294,21.0,21.0,69,0.00,SCT,,0.00,415.0,WeatherDisplay:10.37,2013-03-25 19:20:00,
2013-03-25 15:25:00,36.1,26.2,29.92,NW,305,28.0,28.0,67,0.00,SCT,,0.00,380.0,WeatherDisplay:10.37,2013-03-25 19:25:00,
2013-03-25 15:30:00,36.1,26.2,29.93,NW,311,27.6,27.6,67,0.00,SCT,,0.00,387.0,WeatherDisplay:10.37,2013-03-25 19:30:00,
2013-03-25 15:35:00,36.3,26.4,29.93,NW,320,19.0,19.0,67,0.00,BKN,,0.00,248.0,WeatherDisplay:10.37,2013-03-25 19:35:00,
2013-03-25 15:40:00,36.0,26.5,29.93,NW,321,11.0,11.0,68,0.00,BKN,,0.00,109.0,WeatherDisplay:10.37,2013-03-25 19:40:00,
2013-03-25 15:45:00,35.9,26.4,29.92,WNW,303,22.0,22.0,68,0.00,BKN,,0.00,148.0,WeatherDisplay:10.37,2013-03-25 19:45:00,
2013-03-25 15:50:00,35.4,25.9,29.93,NW,319,23.0,23.0,68,0.00,BKN,,0.00,135.0,WeatherDisplay:10.37,2013-03-25 19:50:00,
2013-03-25 15:55:00,35.0,26.2,29.93,WNW,303,20.7,20.7,70,0.00,BKN,,0.00,192.0,WeatherDisplay:10.37,2013-03-25 19:55:00,
2013-03-25 16:00:00,34.8,26.0,29.93,West,281,19.6,19.6,70,0.00,BKN,,0.00,146.0,WeatherDisplay:10.37,2013-03-25 20:00:00,
2013-03-25 16:05:00,34.9,26.4,29.93,WNW,290,26.5,26.5,71,0.00,BKN,,0.00,158.0,WeatherDisplay:10.37,2013-03-25 20:05:00,
2013-03-25 16:10:00,34.8,26.0,29.93,West,276,19.6,19.6,70,0.00,BKN,,0.00,239.0,WeatherDisplay:10.37,2013-03-25 20:10:00,
2013-03-25 16:15:00,35.0,26.5,29.94,WNW,302,23.0,23.0,71,0.00,BKN,,0.00,229.0,WeatherDisplay:10.37,2013-03-25 20:15:00,
2013-03-25 16:21:00,35.1,26.6,29.94,NW,312,18.4,18.4,71,0.00,BKN,,0.00,214.0,WeatherDisplay:10.37,2013-03-25 20:21:00,
2013-03-25 16:26:00,35.2,26.7,29.94,NW,311,13.8,13.8,71,0.00,BKN,,0.00,141.0,WeatherDisplay:10.37,2013-03-25 20:26:00,
2013-03-25 16:31:00,35.2,26.7,29.94,WNW,298,19.6,19.6,71,0.00,BKN,,0.00,79.0,WeatherDisplay:10.37,2013-03-25 20:31:00,
2013-03-25 16:36:00,34.7,26.3,29.95,NW,306,21.9,21.9,71,0.00,BKN,,0.00,98.0,WeatherDisplay:10.37,2013-03-25 20:36:00,
2013-03-25 16:41:00,34.3,26.2,29.95,WNW,286,24.2,24.2,72,0.00,BKN,,0.00,105.0,WeatherDisplay:10.37,2013-03-25 20:41:00,
2013-03-25 16:46:00,34.2,26.8,29.95,WNW,288,21.9,21.9,74,0.00,BKN,,0.00,151.0,WeatherDisplay:10.37,2013-03-25 20:46:00,
2013-03-25 16:51:00,34.4,27.3,29.95,WNW,294,13.8,13.8,75,0.00,BKN,,0.00,241.0,WeatherDisplay:10.37,2013-03-25 20:51:00,
2013-03-25 16:56:00,34.8,27.0,29.95,NW,316,21.0,21.0,73,0.00,BKN,,0.00,223.0,WeatherDisplay:10.37,2013-03-25 20:56:00,
2013-03-25 17:01:00,35.0,27.2,29.95,WNW,302,19.6,19.6,73,0.00,BKN,,0.00,197.0,WeatherDisplay:10.37,2013-03-25 21:01:00,
2013-03-25 17:06:00,35.0,27.5,29.96,WNW,292,14.0,14.0,74,0.00,BKN,,0.00,202.0,WeatherDisplay:10.37,2013-03-25 21:06:00,
2013-03-25 17:11:00,34.8,27.0,29.96,WNW,296,13.0,13.0,73,0.00,BKN,,0.00,125.0,WeatherDisplay:10.37,2013-03-25 21:11:00,
2013-03-25 17:16:00,34.8,27.0,29.96,WNW,290,23.0,23.0,73,0.00,BKN,,0.00,104.0,WeatherDisplay:10.37,2013-03-25 21:16:00,
2013-03-25 17:21:00,34.6,26.8,29.97,WNW,289,11.5,11.5,73,0.00,BKN,,0.00,90.0,WeatherDisplay:10.37,2013-03-25 21:21:00,
2013-03-25 17:26:00,34.6,26.8,29.97,WNW,303,16.1,16.1,73,0.00,BKN,,0.00,98.0,WeatherDisplay:10.37,2013-03-25 21:26:00,
2013-03-25 17:31:00,34.5,26.4,29.97,WNW,283,20.7,20.7,72,0.00,BKN,,0.00,84.0,WeatherDisplay:10.37,2013-03-25 21:31:00,
2013-03-25 17:36:00,34.4,26.3,29.97,West,277,18.4,18.4,72,0.00,BKN,,0.00,63.0,WeatherDisplay:10.37,2013-03-25 21:36:00,
2013-03-25 17:41:00,34.4,26.6,29.97,WSW,254,19.6,19.6,73,0.00,BKN,,0.00,54.0,WeatherDisplay:10.37,2013-03-25 21:41:00,
2013-03-25 17:46:00,34.4,26.6,29.97,WNW,302,13.8,13.8,73,0.00,BKN,,0.00,69.0,WeatherDisplay:10.37,2013-03-25 21:46:00,
2013-03-25 17:51:00,34.4,26.6,29.97,West,269,20.7,20.7,73,0.00,BKN,,0.00,62.0,WeatherDisplay:10.37,2013-03-25 21:51:00,
2013-03-25 17:57:00,34.4,26.6,29.97,WSW,257,16.1,16.1,73,0.00,BKN,,0.00,49.0,WeatherDisplay:10.37,2013-03-25 21:57:00,
2013-03-25 18:02:00,34.3,26.9,29.98,WNW,289,21.9,21.9,74,0.00,BKN,,0.00,53.0,WeatherDisplay:10.37,2013-03-25 22:02:00,
2013-03-25 18:07:00,34.0,26.6,29.99,WNW,296,21.9,21.9,74,0.00,BKN,,0.00,53.0,WeatherDisplay:10.37,2013-03-25 22:07:00,
2013-03-25 18:12:00,33.6,26.8,29.99,West,276,15.0,15.0,76,0.00,BKN,,0.00,93.0,WeatherDisplay:10.37,2013-03-25 22:12:00,
2013-03-25 18:17:00,33.7,26.6,29.99,NW,306,27.6,27.6,75,0.00,BKN,,0.00,93.0,WeatherDisplay:10.37,2013-03-25 22:17:00,
2013-03-25 18:22:00,33.8,26.7,29.99,NW,320,14.0,14.0,75,0.00,BKN,,0.00,58.0,WeatherDisplay:10.37,2013-03-25 22:22:00,
2013-03-25 18:27:00,33.8,26.4,29.99,WNW,302,17.3,17.3,74,0.00,CLR,,0.00,49.0,WeatherDisplay:10.37,2013-03-25 22:27:00,
2013-03-25 18:32:00,33.8,26.1,29.99,WNW,292,19.6,19.6,73,0.00,CLR,,0.00,40.0,WeatherDisplay:10.37,2013-03-25 22:32:00,
2013-03-25 18:37:00,33.7,26.3,30.00,WNW,292,24.2,24.2,74,0.00,BKN,,0.00,69.0,WeatherDisplay:10.37,2013-03-25 22:37:00,
2013-03-25 18:42:00,33.8,26.1,30.00,WNW,282,24.2,24.2,73,0.00,BKN,,0.00,54.0,WeatherDisplay:10.37,2013-03-25 22:42:00,
2013-03-25 18:47:00,33.7,26.0,30.00,WNW,289,19.6,19.6,73,0.00,CLR,,0.00,44.0,WeatherDisplay:10.37,2013-03-25 22:47:00,
2013-03-25 18:52:00,33.8,26.1,30.00,WNW,296,20.7,20.7,73,0.00,CLR,,0.00,33.0,WeatherDisplay:10.37,2013-03-25 22:52:00,
2013-03-25 18:57:00,33.7,25.3,30.00,NW,307,20.7,20.7,71,0.00,CLR,,0.00,39.0,WeatherDisplay:10.37,2013-03-25 22:57:00,
2013-03-25 19:03:00,33.7,25.3,30.00,WNW,284,18.4,18.4,71,0.00,CLR,,0.00,35.0,WeatherDisplay:10.37,2013-03-25 23:03:00,
2013-03-25 19:08:00,33.7,25.0,30.01,NW,311,18.0,18.0,70,0.00,CLR,,0.00,26.0,WeatherDisplay:10.37,2013-03-25 23:08:00,
2013-03-25 19:13:00,33.5,24.8,30.01,WNW,286,24.2,24.2,70,0.00,CLR,,0.00,21.0,WeatherDisplay:10.37,2013-03-25 23:13:00,
2013-03-25 19:18:00,33.5,24.8,30.01,WNW,295,21.9,21.9,70,0.00,CLR,,0.00,21.0,WeatherDisplay:10.37,2013-03-25 23:18:00,
2013-03-25 19:23:00,33.5,25.1,30.01,NW,305,20.7,20.7,71,0.00,CLR,,0.00,21.0,WeatherDisplay:10.37,2013-03-25 23:23:00,
2013-03-25 19:28:00,33.4,24.7,30.02,NNW,329,23.0,23.0,70,0.00,CLR,,0.00,16.0,WeatherDisplay:10.37,2013-03-25 23:28:00,
2013-03-25 19:33:00,33.4,25.3,30.02,WNW,300,11.5,11.5,72,0.00,CLR,,0.00,5.0,WeatherDisplay:10.37,2013-03-25 23:33:00,
2013-03-25 19:38:00,33.2,25.5,30.02,NW,316,20.7,20.7,73,0.00,CLR,,0.00,0.0,WeatherDisplay:10.37,2013-03-25 23:38:00,
2013-03-25 19:43:00,32.8,26.1,30.03,West,273,19.6,19.6,76,0.00,CLR,,0.00,0.0,WeatherDisplay:10.37,2013-03-25 23:43:00,
2013-03-25 19:48:00,32.5,26.1,30.03,WNW,290,20.0,20.0,77,0.00,CLR,,0.00,0.0,WeatherDisplay:10.37,2013-03-25 23:48:00,
2013-03-25 19:53:00,32.4,26.3,30.03,NNW,329,13.8,13.8,78,0.00,CLR,,0.00,0.0,WeatherDisplay:10.37,2013-03-25 23:53:00,
2013-03-25 19:58:00,32.3,26.2,30.04,NW,308,15.0,15.0,78,0.00,CLR,,0.00,0.0,WeatherDisplay:10.37,2013-03-25 23:58:00,
2013-03-25 20:03:00,32.2,26.4,30.04,WNW,296,17.3,17.3,79,0.00,CLR,,0.00,0.0,WeatherDisplay:10.37,2013-03-26 00:03:00,
2013-03-25 20:08:00,32.1,26.3,30.04,West,265,11.5,11.5,79,0.00,CLR,,0.00,0.0,WeatherDisplay:10.37,2013-03-26 00:08:00,
2013-03-25 20:13:00,31.9,26.7,30.05,West,271,19.6,19.6,81,0.00,CLR,,0.00,0.0,WeatherDisplay:10.37,2013-03-26 00:13:00,
2013-03-25 20:18:00,31.6,26.7,30.04,West,281,16.1,16.1,82,0.00,CLR,,0.00,0.0,WeatherDisplay:10.37,2013-03-26 00:18:00,
2013-03-25 20:23:00,31.5,26.6,30.04,WNW,300,16.1,16.1,82,0.00,CLR,,0.00,0.0,WeatherDisplay:10.37,2013-03-26 00:23:00,
2013-03-25 20:28:00,31.5,26.6,30.04,NW,316,15.0,15.0,82,0.00,CLR,,0.00,0.0,WeatherDisplay:10.37,2013-03-26 00:28:00,
2013-03-25 20:33:00,31.6,26.4,30.05,WNW,296,16.1,16.1,81,0.00,CLR,,0.00,0.0,WeatherDisplay:10.37,2013-03-26 00:33:00,
2013-03-25 20:38:00,31.7,26.2,30.05,NW,321,18.4,18.4,80,0.00,CLR,,0.00,0.0,WeatherDisplay:10.37,2013-03-26 00:38:00,
2013-03-25 20:43:00,31.8,26.3,30.05,West,281,15.0,15.0,80,0.00,CLR,,0.00,0.0,WeatherDisplay:10.37,2013-03-26 00:43:00,
2013-03-25 20:48:00,31.8,26.3,30.05,West,273,17.3,17.3,80,0.00,CLR,,0.00,0.0,WeatherDisplay:10.37,2013-03-26 00:48:00,
2013-03-25 20:53:00,31.7,26.2,30.05,WNW,298,16.1,16.1,80,0.00,CLR,,0.00,0.0,WeatherDisplay:10.37,2013-03-26 00:53:00,
2013-03-25 20:58:00,31.7,26.5,30.05,NW,321,19.6,19.6,81,0.00,CLR,,0.00,0.0,WeatherDisplay:10.37,2013-03-26 00:58:00,
2013-03-25 21:03:00,31.7,26.5,30.05,West,280,11.5,11.5,81,0.00,CLR,,0.00,0.0,WeatherDisplay:10.37,2013-03-26 01:03:00,
2013-03-25 21:08:00,31.6,26.4,30.06,NW,310,13.8,13.8,81,0.00,CLR,,0.00,0.0,WeatherDisplay:10.37,2013-03-26 01:08:00,
2013-03-25 21:13:00,31.6,25.8,30.06,NNW,335,18.4,18.4,79,0.00,CLR,,0.00,0.0,WeatherDisplay:10.37,2013-03-26 01:13:00,
2013-03-25 21:18:00,31.7,26.2,30.06,WNW,293,15.0,15.0,80,0.00,CLR,,0.00,0.0,WeatherDisplay:10.37,2013-03-26 01:18:00,
2013-03-25 21:23:00,31.7,26.2,30.06,WNW,284,18.0,18.0,80,0.00,CLR,,0.00,0.0,WeatherDisplay:10.37,2013-03-26 01:23:00,
2013-03-25 21:28:00,31.7,25.9,30.06,West,264,18.4,18.4,79,0.00,CLR,,0.00,0.0,WeatherDisplay:10.37,2013-03-26 01:28:00,
2013-03-25 21:33:00,31.7,26.2,30.07,NW,310,17.3,17.3,80,0.00,CLR,,0.00,0.0,WeatherDisplay:10.37,2013-03-26 01:33:00,
2013-03-25 21:38:00,31.7,26.5,30.07,WNW,301,11.5,11.5,81,0.00,CLR,,0.00,0.0,WeatherDisplay:10.37,2013-03-26 01:38:00,
2013-03-25 21:43:00,31.7,26.5,30.07,West,274,18.0,18.0,81,0.00,CLR,,0.00,0.0,WeatherDisplay:10.37,2013-03-26 01:43:00,
2013-03-25 21:48:00,31.6,26.1,30.07,NW,323,10.4,10.4,80,0.00,CLR,,0.00,0.0,WeatherDisplay:10.37,2013-03-26 01:48:00,
2013-03-25 21:53:00,31.7,26.2,30.07,West,275,12.7,12.7,80,0.00,CLR,,0.00,0.0,WeatherDisplay:10.37,2013-03-26 01:53:00,
2013-03-25 21:58:00,31.7,25.9,30.07,WNW,298,13.0,13.0,79,0.00,CLR,,0.00,0.0,WeatherDisplay:10.37,2013-03-26 01:58:00,
2013-03-25 22:03:00,31.7,26.2,30.07,West,263,15.0,15.0,80,0.00,CLR,,0.00,0.0,WeatherDisplay:10.37,2013-03-26 02:03:00,
2013-03-25 22:08:00,31.7,25.9,30.07,NW,306,16.1,16.1,79,0.00,CLR,,0.00,0.0,WeatherDisplay:10.37,2013-03-26 02:08:00,
2013-03-25 22:13:00,31.6,25.8,30.07,WNW,296,17.3,17.3,79,0.00,CLR,,0.00,0.0,WeatherDisplay:10.37,2013-03-26 02:13:00,
2013-03-25 22:18:00,31.5,25.7,30.07,WNW,299,20.7,20.7,79,0.00,CLR,,0.00,0.0,WeatherDisplay:10.37,2013-03-26 02:18:00,
2013-03-25 22:23:00,31.5,25.4,30.07,WNW,303,17.3,17.3,78,0.00,CLR,,0.00,0.0,WeatherDisplay:10.37,2013-03-26 02:23:00,
2013-03-25 22:28:00,31.5,25.7,30.07,WNW,294,19.6,19.6,79,0.00,CLR,,0.00,0.0,WeatherDisplay:10.37,2013-03-26 02:28:00,
2013-03-25 22:33:00,31.4,25.6,30.07,WNW,289,11.5,11.5,79,0.00,CLR,,0.00,0.0,WeatherDisplay:10.37,2013-03-26 02:33:00,
2013-03-25 22:38:00,31.2,25.4,30.07,WNW,286,9.2,9.2,79,0.00,CLR,,0.00,0.0,WeatherDisplay:10.37,2013-03-26 02:38:00,
2013-03-25 22:43:00,31.1,25.3,30.08,NW,307,11.5,11.5,79,0.00,CLR,,0.00,0.0,WeatherDisplay:10.37,2013-03-26 02:43:00,
2013-03-25 22:48:00,31.1,25.7,30.08,WNW,292,20.0,20.0,80,0.00,CLR,,0.00,0.0,WeatherDisplay:10.37,2013-03-26 02:48:00,
2013-03-25 22:53:00,31.1,25.7,30.08,WNW,300,12.7,12.7,80,0.00,CLR,,0.00,0.0,WeatherDisplay:10.37,2013-03-26 02:53:00,
2013-03-25 22:58:00,31.1,25.0,30.08,West,278,18.4,18.4,78,0.00,CLR,,0.00,0.0,WeatherDisplay:10.37,2013-03-26 02:58:00,
2013-03-25 23:03:00,31.1,25.3,30.08,NW,313,15.0,15.0,79,0.00,CLR,,0.00,0.0,WeatherDisplay:10.37,2013-03-26 03:03:00,
2013-03-25 23:08:00,31.1,25.3,30.09,WNW,298,27.0,27.0,79,0.00,CLR,,0.00,0.0,WeatherDisplay:10.37,2013-03-26 03:08:00,
2013-03-25 23:13:00,31.2,25.1,30.09,NW,310,21.9,21.9,78,0.00,CLR,,0.00,0.0,WeatherDisplay:10.37,2013-03-26 03:13:00,
2013-03-25 23:18:00,31.2,25.1,30.09,NNW,338,16.1,16.1,78,0.00,CLR,,0.00,0.0,WeatherDisplay:10.37,2013-03-26 03:18:00,
2013-03-25 23:23:00,31.2,25.4,30.09,WNW,292,10.4,10.4,79,0.00,CLR,,0.00,0.0,WeatherDisplay:10.37,2013-03-26 03:23:00,
2013-03-25 23:29:00,31.2,25.4,30.09,WNW,285,16.1,16.1,79,0.00,CLR,,0.00,0.0,WeatherDisplay:10.37,2013-03-26 03:29:00,
2013-03-25 23:34:00,31.2,25.1,30.10,NNW,329,13.8,13.8,78,0.00,CLR,,0.00,0.0,WeatherDisplay:10.37,2013-03-26 03:34:00,
2013-03-25 23:39:00,31.2,25.4,30.09,NW,313,10.4,10.4,79,0.00,CLR,,0.00,0.0,WeatherDisplay:10.37,2013-03-26 03:39:00,
2013-03-25 23:44:00,31.1,25.3,30.09,WNW,297,16.1,16.1,79,0.00,CLR,,0.00,0.0,WeatherDisplay:10.37,2013-03-26 03:44:00,
2013-03-25 23:49:00,31.1,25.3,30.09,West,281,10.0,10.0,79,0.00,CLR,,0.00,0.0,WeatherDisplay:10.37,2013-03-26 03:49:00,
2013-03-25 23:54:00,31.1,25.7,30.09,West,281,11.5,11.5,80,0.00,CLR,,0.00,0.0,WeatherDisplay:10.37,2013-03-26 03:54:00,
2013-03-25 23:59:00,31.1,25.7,30.09,WNW,292,11.5,11.5,80,0.00,CLR,,0.00,0.0,WeatherDisplay:10.37,2013-03-26 03:59:00,